Regional Weather Roundup
Issued by NWS Nashville, TN

Home | Current Version | Previous Version | Text Only | Print | Product List | Glossary On
Versions: 1 2 3 4 5 6 7 8 9 10 11 12 13 14 15 16 17 18 19 20 21 22 23 24 25 26 27
000
ASUS44 KOHX 282210
RWROHX
MIDDLE TENNESSEE HOURLY WEATHER ROUNDUP
NATIONAL WEATHER SERVICE NASHVILLE TN
500 PM CDT SUN AUG 28 2016

NOTE: "FAIR" INDICATES FEW OR NO CLOUDS BELOW 12,000 FEET WITH
NO SIGNIFICANT WEATHER AND/OR OBSTRUCTIONS TO VISIBILITY.

* THESE REPORTS ARE NOT UNDER NWS QUALITY CONTROL AND MAY NOT
  REPORT WEATHER SUCH AS PRECIPITATION AND FOG.


TNZ005>011-023>034-057-059-062>066-078-080-282300
...NORTHERN MIDDLE TENNESSEE...

CITY           SKY/WX    TMP DP  RH WIND       PRES   REMARKS
CLARKSVILLE    MOSUNNY   89  73  59 N7        30.08S HX  97
CROSSVILLE     CLOUDY    81  71  71 NW5       30.17R
NASHVILLE      CLOUDY    90  67  46 SE10G17   30.09S HX  93
WEST NASHVILLE SUNNY     93  68  43 N6        30.07S HX  97
SMYRNA         TSTM      77  72  83 SW12      30.10R
SPARTA         SUNNY     77  73  88 CALM      30.12R
$$
TNZ056-058-060-061-075>077-079-093>097-282300
...SOUTHERN MIDDLE TENNESSEE...

CITY           SKY/WX    TMP DP  RH WIND       PRES   REMARKS
COLUMBIA       PTSUNNY   93  72  49 NE7       30.07R HX 100
MCMINNVILLE    SUNNY     77  73  88 E3        30.13R
SHELBYVILLE    SUNNY     82  75  78 N8        30.10F
TULLAHOMA        N/A     88  68  51 NE7       30.12S HX  91
WINCHESTER     SUNNY     88  72  58 E9        30.11R HX  94
$$


...KEY TO REMARKS...
VSB - VISIBILITY IN MILES
WCI - WIND CHILL INDEX
HX  - HEAT INDEX





USA.gov is the U.S. government's official web portal to all federal, state and local government web resources and services.